Retour au catalogue

INTELSAT 37E

ActifCommunicationsGEO
NORAD 42950·PAYLOAD· XX

Lancé Sep 29, 2017 depuis Guiana Space Centre

Loading…

TLE

FraisSource: CelesTrak SupGP

Époque: Sep 14, 2026, 20:21 UTC

1 42950C 17059A   26257.84861111 -.00003280  00000+0  00000+0 0  2573
2 42950   0.0040 211.6104 0002743 317.4132 112.3074  1.00272303    15

Suivez INTELSAT 37E en temps réel avec AllMySat

Download on the App Store